Terminal Aerodrome Forecast
Issued by NWS Detroit/Pontiac, MI

Home | Current Version | Previous Version | Text Only | Print | Product List | Glossary On
Versions: 1 2 3 4 5 6 7 8 9 10 11 12 13 14 15 16 17 18 19 20 21 22 23 24 25 26 27 28 29
000
FTUS43 KDTX 232327
TAFDTW
TAF
KDTW 232327Z 2400/2506 12005KT P6SM FEW070 BKN250
     FM240800 VRB03KT 5SM BR BKN250
     FM241300 22010KT P6SM SCT040 OVC120 PROB30 2413/2416 3SM -TSRA
      OVC040CB
     FM241600 22013KT 6SM -SHRA OVC040
     FM241900 22013G20KT P6SM SCT050 BKN100
     FM250100 20007KT P6SM SCT250=

USA.gov is the U.S. government's official web portal to all federal, state and local government web resources and services.